Blythe, CA

9:58 AM PDT on October 14, 2019 (GMT -0700)
Blythe

Weather History for KBLH - September, 2019

Change the Weather History Date:

Wednesday, September 18, 2019

  Actual Average Record
Temperature  
Mean Temperature 84 °F -  
Max Temperature 102 °F 99 °F 109 °F (1980)
Min Temperature 68 °F 71 °F 59 °F (1985)
Cooling Degree Days 19    
Growing Degree Days 34 (Base 50)    
Moisture  
Dew Point 25 °F    
Average Humidity 15    
Maximum Humidity 30    
Minimum Humidity 4    
Precipitation  
Precipitation 0.00 in - - ()
Sea Level Pressure  
Sea Level Pressure 29.76 in    
Wind  
Wind Speed 7 mph (SW)    
Max Wind Speed 16 mph    
Max Gust Speed -    
Visibility 10 miles    
Events      
Averages and records for this station are not official NWS values.
T = Trace of Precipitation, MM = Missing Value Source: NWS Daily Summary

Daily Weather History Graph

Daily Weather History Graph

Search for Another Location

Airport or City:

Astronomy

Sep. 18, 2019 Rise Set
Actual Time 6:24 AM PDT 6:41 PM PDT
Civil Twilight 5:59 AM PDT 7:06 PM PDT
Nautical Twilight 5:30 AM PDT 7:35 PM PDT
Astronomical Twilight 5:00 AM PDT 8:04 PM PDT
Moon 9:29 PM PDT (9/18) 10:20 AM PDT (9/18)
Length of Visible Light 13h 06m
Length of Day
12h 17m
Waning Gibbous, 82% of the Moon is Illuminated
Sep 18
Waning Gibbous
Sep 21
Last Quarter
Sep 28
New
Oct 5
First Quarter
Oct 13
Full

Hourly Weather History & Observations

Time (PDT) Temp. Dew Point Humidity Pressure Visibility Wind Dir Wind Speed Gust Speed Precip Events Conditions
12:52 AM 82.0 °F 35.1 °F 18% 29.77 in 10.0 mi South 5.8 mph - N/A   Clear
1:52 AM 80.1 °F 37.0 °F 21% 29.77 in 10.0 mi SW 5.8 mph - N/A   Clear
2:52 AM 78.1 °F 39.9 °F 25% 29.77 in 10.0 mi SW 5.8 mph - N/A   Clear
3:52 AM 75.0 °F 39.0 °F 27% 29.77 in 10.0 mi West 8.1 mph - N/A   Clear
4:52 AM 70.0 °F 36.0 °F 29% 29.78 in 10.0 mi WNW 6.9 mph - N/A   Clear
5:52 AM 68.0 °F 35.1 °F 30% 29.79 in 10.0 mi NW 3.5 mph - N/A   Clear
6:52 AM 70.0 °F 35.1 °F 28% 29.81 in 10.0 mi West 3.5 mph - N/A   Clear
7:52 AM 77.0 °F 34.0 °F 21% 29.82 in 10.0 mi West 8.1 mph - N/A   Clear
8:52 AM 81.0 °F 35.1 °F 19% 29.83 in 10.0 mi WSW 3.5 mph - N/A   Clear
9:52 AM 84.9 °F 34.0 °F 16% 29.84 in 10.0 mi South 4.6 mph - N/A   Clear
11:52 AM 91.9 °F 36.0 °F 14% 29.81 in 10.0 mi North - - N/A   Clear
12:52 PM 95.0 °F 33.1 °F 11% 29.78 in 10.0 mi ESE 3.5 mph - N/A   Clear
1:52 PM 98.1 °F 24.1 °F 7% 29.75 in 10.0 mi South 10.4 mph - N/A   Clear
2:52 PM 100.9 °F 14.0 °F 4% 29.73 in 10.0 mi WSW 12.7 mph - N/A   Clear
3:52 PM 100.9 °F -2.0 °F 4% 29.71 in 10.0 mi SSW 13.8 mph - N/A   Clear
4:52 PM 100.0 °F -9.9 °F 4% 29.71 in 10.0 mi SW 15.0 mph - N/A   Clear
5:52 PM 98.1 °F -4.0 °F 4% 29.70 in 10.0 mi SW 16.1 mph - N/A   Clear
6:52 PM 93.0 °F 1.9 °F 4% 29.70 in 10.0 mi SW 9.2 mph - N/A   Clear
7:52 PM 89.1 °F 7.0 °F 5% 29.71 in 10.0 mi SW 6.9 mph - N/A   Clear
8:52 PM 86.0 °F 12.0 °F 6% 29.71 in 10.0 mi WSW 6.9 mph - N/A   Clear
9:52 PM 87.1 °F 25.0 °F 10% 29.71 in 10.0 mi SW 11.5 mph - N/A   Clear
10:52 PM 84.0 °F 30.9 °F 15% 29.71 in 10.0 mi West 6.9 mph - N/A   Clear
11:52 PM 81.0 °F 36.0 °F 20% 29.71 in 10.0 mi South 4.6 mph - N/A   Clear